Flag for Switzerland Weather past 2 weeks in Martigny, Valais, Switzerland

Now
39 °F

Clear.


Feels Like: 39 °F
Forecast: 37 / 60 °F
Wind: 1 mph from West

Location: Sion


UV Index: 0 (Low)

Visibility: 16 mi


Pressure: 30.02 "Hg

Humidity: 78%

Dew point: 33 °F

Location of MartignyLocation

Historic Weather in Martigny

°F

Martigny temperature yesterday

Maximum temperature yesterday: 65 °F (at 4:00 PM)
Minimum temperature yesterday: 38 °F (at 7:00 AM)
Average temperature yesterday: 49 °F

Past Weeks' High & Low Weather Summary

 TemperatureHumidityPressure
High75 °F (Apr 11, 5:00 PM)94% (Apr 8, 10:00 AM)30.31 "Hg (Apr 8, 10:00 AM)
Low37 °F (Apr 16, 5:00 AM)18% (Apr 15, 4:00 PM)29.57 "Hg (Apr 4, 5:00 PM)
Average56 °F55%30.01 "Hg
* Reported Apr 3 4:00 AM — Apr 18 4:00 AM, Martigny, Weather by CustomWeather, © 2014

Note: Actual official high and low records may vary slightly from our data, if they occured in-between our weather recording intervals... More about our weather records

Advertising

Historic Weather Conditions — Data for Previous 24 hours

 ConditionsComfort  
Time TempWeatherWind HumidityBarometerVisibility
4:00 AM
Apr 18
41 °FQuite cool.1 mph77%30.03 "HgN/A
3:00 AM43 °FQuite cool.2 mph64%30.02 "HgN/A
2:00 AM44 °FClear.3 mph63%30.04 "Hg19 mi
6:00 PM
Apr 17
64 °FMild.23 mph32%29.91 "HgN/A
5:00 PM64 °FSunny.18 mph33%29.92 "Hg12 mi
4:00 PM65 °FMild.16 mph31%29.94 "HgN/A
3:00 PM63 °FMild.18 mph31%29.98 "HgN/A
2:00 PM60 °FSunny.14 mph37%30.01 "Hg19 mi
1:00 PM58 °FRefreshingly cool.7 mph39%30.06 "HgN/A
12:00 PM54 °FCool.6 mph42%30.11 "HgN/A
10:00 AM49 °FCool.2 mph56%30.18 "HgN/A
9:00 AM44 °FQuite cool.3 mph64%30.21 "HgN/A
8:00 AM40 °FSunny.3 mph72%30.23 "Hg19 mi
7:00 AM38 °FChilly.1 mph81%30.24 "HgN/A
6:00 AM38 °FChilly.1 mph77%30.24 "HgN/A
5:00 AM39 °FClear.2 mph85%30.24 "Hg12 mi
Weather by CustomWeather, © 2014

See weather overview